Find Starlink 35895

NORAD ID: 66354 Int'l Des: 2025-254 Owner: SPXS Country: US Constellation: starlink operational
LEOCIRCULAR

Current View

Loading 3D Globe...

About Starlink 35895

Description loading...

Upcoming Passes

Passes for default location (London). Set your location on the main map for personalized predictions.

Altitude History

Loading altitude history...

Two-Line Element Set

1 66354U 25254G 26146.55860603 .00007220 00000-0 25566-3 0 9992
2 66354 53.1598 231.0624 0001136 81.6991 278.4139 15.30198530 30899
Epoch: May 26, 2026 • Age: 10 hours

Current Status

Altitude 477.1 km
Velocity 7.63 km/s
Sub-Earth Point -5.43°S, 174.23°E
Launch Date Nov 6, 2025
Age 0.5 years
Type internet

Technical Details

Classification Payload
Mass 575.00 kg
Dry Mass 530.00 kg
Total Mass 575.00 kg
Length 0.30 m
Diameter 4.10 m
Span 29.00 m
Shape Box + pan
Manufacturer SPXS
Bus Type Starlink V2MO
Phase Status In Orbit
Owner/State SPXS/US

Most Searched